[Iaude] MPEC R115: 2019 RV3 [a=2.94,e=0.69,i=7.3,H=19.5]

mpec at marsden.cfa.harvard.edu mpec at marsden.cfa.harvard.edu
Sat Sep 14 06:31:05 EDT 2019


M.P.E.C. 2019-R115                           Issued 2019 September 14, 10:29 UT

     The Minor Planet Electronic Circulars contain information on unusual
         minor planets and routine data on comets.  They are published
    on behalf of Division F of the International Astronomical Union by the
          Minor Planet Center, Smithsonian Astrophysical Observatory,
                          Cambridge, MA 02138, U.S.A.

             Prepared using the Tamkin Foundation Computer Network

                              MPC at CFA.HARVARD.EDU
            URL https://www.minorplanetcenter.net/    ISSN 1523-6714

                                    2019 RV3                                    


Observations:
     K19R03V* C2019 09 06.60420 04 22 35.839+27 15 46.85         21.8 wUER115F51
     K19R03V  C2019 09 06.61289 04 22 37.756+27 15 55.45         22.0 wUER115F51
     K19R03V  C2019 09 06.62160 04 22 39.680+27 16 03.98         22.1 wUER115F51
     K19R03V ^C2019 09 08.56731004 30 06.370+27 47 51.12         21.74GVER115568
     K19R03V ^C2019 09 08.56827904 30 06.596+27 47 52.08         21.69GVER115568
     K19R03V ^C2019 09 08.56923404 30 06.812+27 47 53.02         21.65GVER115568
     K19R03V ^C2019 09 09.59673804 34 09.707+28 04 35.73         21.71GVER115568
     K19R03V ^C2019 09 09.59768704 34 09.931+28 04 36.66         21.65GVER115568
     K19R03V ^C2019 09 09.59864204 34 10.155+28 04 37.59         21.70GVER115568
     K19R03V ^C2019 09 09.61385604 34 13.727+28 04 52.52         21.74GVER115568
     K19R03V ^C2019 09 09.61480904 34 13.952+28 04 53.45         21.64GVER115568
     K19R03V ^C2019 09 09.61576204 34 14.177+28 04 54.38         21.68GVER115568
     K19R03V IC2019 09 11.11816604 40 19.09 +28 29 05.9          21.8 GVER115L01
     K19R03V KC2019 09 11.12287304 40 20.24 +28 29 10.5          21.9 GVER115L01

Observer details:
568 Mauna Kea.  Observers R. Wainscoat, C. Wipper, T. Burdullis.  Measurers R. 
   Weryk, R. Wainscoat.  3.6-m Canada-France-Hawaii Telescope + CCD.
F51 Pan-STARRS 1, Haleakala.  Observers J. Bulger, T. Lowe, A. Schultz, M. 
   Willman.  Measurers K. Chambers, S. Chastel, T. de Boer, L. Denneau, J. 
   Fairlamb, H. Flewelling, M. Huber, C.-C. Lin, E. Magnier, Y. Ramanjooloo, R. 
   Wainscoat, R. Weryk.  1.8-m Ritchey-Chretien + CCD.
L01 Visnjan Observatory, Tican.  Observer K. Korlevic.  1.0-m f/2.9 reflector + 
   CCD.

Orbital elements:
2019 RV3                                            PHA, Earth MOID = 0.0496 AU
Epoch 2019 Apr. 27.0 TT = JDT 2458600.5                 Veres
M 317.36604              (2000.0)            P               Q
n   0.19565915     Peri.  118.74292     -0.39269714     -0.91958278
a   2.9385694      Node   354.33604     +0.79339240     -0.33186772
e   0.6898502      Incl.    7.28145     +0.46509941     -0.21031245
P   5.04           H   19.5           G   0.15           U   7
Residuals in seconds of arc
190906 F51  0.0   0.0     190908 568  0.3-  0.0     190909 568  0.3-  0.1+
190906 F51  0.1-  0.0     190909 568  0.3-  0.1+    190909 568  0.3-  0.1+
190906 F51  0.1-  0.0     190909 568  0.2-  0.1+    190911 L01  0.4+  0.2-
190908 568  0.3-  0.0     190909 568  0.3-  0.1+    190911 L01  0.4+  0.2-
190908 568  0.2-  0.0     190909 568  0.3-  0.1+

Ephemeris:
2019 RV3                 a,e,i = 2.94, 0.69, 7                   q = 0.9114
Date    TT    R. A. (2000) Decl.     Delta      r    Elong.  Phase     V
2019 08 15    03 12 41.0 +21 13 58   1.3665  1.7031    90.1    36.5    22.8
...
2019 08 30    03 56 02.8 +25 11 10   1.1218  1.5602    93.9    40.2    22.3
...
2019 09 07    04 24 04.9 +27 22 14   1.0032  1.4837    95.1    42.6    22.0
...
2019 09 13    04 48 12.1 +28 59 11   0.9212  1.4265    95.4    44.6    21.8
2019 09 14    04 52 31.4 +29 14 56   0.9082  1.4170    95.4    45.0    21.8
2019 09 15    04 56 56.4 +29 30 31   0.8954  1.4076    95.3    45.4    21.7
...
2019 09 21    05 25 32.7 +30 58 39   0.8227  1.3510    94.9    47.8    21.5
...
2019 09 29    06 09 53.1 +32 30 38   0.7386  1.2770    93.1    51.6    21.3
...
2019 10 14    07 51 45.6 +32 31 48   0.6295  1.1457    86.4    60.4    20.9

A. U. Tomatic                (C) Copyright 2019 MPC           M.P.E.C. 2019-R115




More information about the Iaude mailing list